CFE165 EGLC-LESO

Flight info

Callsign CFE165
Flight time 1h 34m
Altitude 25000
Route SOQQA M87 EKNIV M91 LYD UM189 WAFFU/N0471F320 DCT SITET/N0468F330 UN859 SOPIL DCT BALAN DCT LMG DCT UVELI DCT OSMOB DCT VAVIX DCT BTZ/N0416F190 R10 URUNA P181 SSN
Aircraft E190/M-SDE3GILORVW/S

Departure

Time 2026-04-16 12:18
Airport London City Airport (EGLC)

Arrival

Time 2026-04-16 13:53
Airport San Sebastián Airport (LESO)
Time Latitude Longitude Altitude Speed Heading
2026-04-16 12:09 51.50408 0.05196 24 ft 0 kts 331°
2026-04-16 12:14 51.50411 0.05196 24 ft 1 kts
2026-04-16 12:14 51.50433 0.05200 25 ft 4 kts 20°
2026-04-16 12:15 51.50449 0.05266 25 ft 9 kts 95°
2026-04-16 12:15 51.50442 0.05400 25 ft 14 kts 93°
2026-04-16 12:15 51.50436 0.05586 25 ft 17 kts 93°
2026-04-16 12:15 51.50429 0.05791 25 ft 19 kts 93°
2026-04-16 12:16 51.50423 0.06017 25 ft 20 kts 92°
2026-04-16 12:16 51.50415 0.06250 24 ft 19 kts 93°
2026-04-16 12:16 51.50410 0.06423 24 ft 14 kts 93°
2026-04-16 12:16 51.50419 0.06573 25 ft 11 kts 40°
2026-04-16 12:17 51.50474 0.06590 25 ft 6 kts
2026-04-16 12:17 51.50491 0.06547 25 ft 0 kts 271°
2026-04-16 12:17 51.50491 0.06545 25 ft 0 kts 271°
2026-04-16 12:17 51.50491 0.06532 25 ft 12 kts 271°
2026-04-16 12:18 51.50507 0.06052 25 ft 73 kts 272°
2026-04-16 12:18 51.50542 0.04895 25 ft 131 kts 271°
2026-04-16 12:18 51.50583 0.03355 389 ft 143 kts 271°
2026-04-16 12:18 51.50671 0.01740 961 ft 148 kts 282°
2026-04-16 12:19 51.51232 0.00455 1296 ft 151 kts 324°
2026-04-16 12:19 51.52207 -0.00330 1755 ft 162 kts 328°
2026-04-16 12:19 51.53223 -0.01159 2326 ft 166 kts 327°
2026-04-16 12:19 51.54278 -0.01917 2885 ft 175 kts 343°
2026-04-16 12:20 51.55619 -0.01689 2958 ft 218 kts 19°
2026-04-16 12:20 51.56787 -0.00023 3027 ft 236 kts 62°
2026-04-16 12:20 51.57349 0.02474 3002 ft 238 kts 74°
2026-04-16 12:20 51.57819 0.05026 2931 ft 236 kts 75°
2026-04-16 12:21 51.58268 0.07533 2990 ft 235 kts 75°
2026-04-16 12:21 51.58717 0.10078 2999 ft 235 kts 75°
2026-04-16 12:21 51.59154 0.12585 3017 ft 236 kts 75°
2026-04-16 12:21 51.59594 0.15116 2997 ft 234 kts 75°
2026-04-16 12:22 51.60033 0.17651 2998 ft 233 kts 75°
2026-04-16 12:22 51.60268 0.20188 3006 ft 232 kts 89°
2026-04-16 12:22 51.60324 0.22779 3002 ft 233 kts 90°
2026-04-16 12:22 51.59928 0.25315 3250 ft 246 kts 129°
2026-04-16 12:23 51.58563 0.27046 3622 ft 260 kts 158°
2026-04-16 12:23 51.57000 0.28570 4295 ft 273 kts 144°
2026-04-16 12:23 51.55603 0.30655 5177 ft 278 kts 136°
2026-04-16 12:23 51.54325 0.32982 6078 ft 281 kts 133°
2026-04-16 12:24 51.53117 0.35416 6946 ft 284 kts 130°
2026-04-16 12:24 51.51918 0.37954 7785 ft 288 kts 130°
2026-04-16 12:24 51.50729 0.40530 8108 ft 290 kts 129°
2026-04-16 12:24 51.49550 0.43110 8144 ft 291 kts 129°
2026-04-16 12:25 51.48320 0.45809 8404 ft 309 kts 129°
2026-04-16 12:25 51.47047 0.48610 9311 ft 311 kts 129°
2026-04-16 12:25 51.45806 0.51342 10394 ft 307 kts 129°
2026-04-16 12:25 51.44560 0.54079 11295 ft 309 kts 129°
2026-04-16 12:26 51.43275 0.56898 11980 ft 320 kts 129°
2026-04-16 12:26 51.41937 0.59832 12562 ft 334 kts 129°
2026-04-16 12:26 51.40282 0.62423 13205 ft 336 kts 153°
2026-04-16 12:26 51.38142 0.63831 14000 ft 336 kts 165°
2026-04-16 12:27 51.35961 0.65011 14897 ft 339 kts 166°
2026-04-16 12:27 51.33713 0.66207 15780 ft 342 kts 166°
2026-04-16 12:27 51.31450 0.67402 16596 ft 346 kts 166°
2026-04-16 12:27 51.29159 0.68607 17352 ft 351 kts 167°
2026-04-16 12:28 51.26841 0.69825 18077 ft 356 kts 167°
2026-04-16 12:28 51.24484 0.71113 18767 ft 363 kts 162°
2026-04-16 12:28 51.22153 0.72699 19457 ft 368 kts 161°
2026-04-16 12:28 51.19810 0.74309 20141 ft 372 kts 162°
2026-04-16 12:29 51.17414 0.75953 20833 ft 376 kts 162°
2026-04-16 12:29 51.15019 0.77594 21508 ft 379 kts 162°
2026-04-16 12:29 51.12598 0.79250 22153 ft 383 kts 162°
2026-04-16 12:29 51.10166 0.80912 22792 ft 386 kts 162°
2026-04-16 12:30 51.07698 0.82596 23401 ft 390 kts 162°
2026-04-16 12:30 51.05202 0.84299 23987 ft 394 kts 162°
2026-04-16 12:30 51.02620 0.85858 24545 ft 392 kts 174°
2026-04-16 12:30 50.99995 0.85917 25051 ft 379 kts 199°
2026-04-16 12:31 50.97597 0.84356 25621 ft 367 kts 219°
2026-04-16 12:31 50.95539 0.82028 26243 ft 366 kts 223°
2026-04-16 12:31 50.93541 0.79582 26797 ft 368 kts 224°
2026-04-16 12:31 50.91515 0.77033 27359 ft 371 kts 224°
2026-04-16 12:32 50.89470 0.74440 27890 ft 374 kts 225°
2026-04-16 12:32 50.87415 0.71825 28427 ft 377 kts 225°
2026-04-16 12:32 50.85392 0.69252 28958 ft 379 kts 225°
2026-04-16 12:32 50.83315 0.66612 29503 ft 380 kts 225°
2026-04-16 12:33 50.81250 0.63990 29994 ft 383 kts 225°
2026-04-16 12:33 50.79150 0.61326 30468 ft 386 kts 226°
2026-04-16 12:33 50.77055 0.58672 30965 ft 387 kts 226°
2026-04-16 12:33 50.74951 0.56011 31404 ft 390 kts 226°
2026-04-16 12:34 50.72838 0.53340 31822 ft 392 kts 226°
2026-04-16 12:34 50.70730 0.50680 32267 ft 394 kts 226°
2026-04-16 12:34 50.68597 0.47991 32800 ft 394 kts 226°
2026-04-16 12:34 50.66481 0.45329 33135 ft 387 kts 226°
2026-04-16 12:35 50.62181 0.39916 33179 ft 407 kts 226°
2026-04-16 12:35 50.57535 0.34524 33183 ft 427 kts 216°
2026-04-16 12:36 50.52094 0.30474 33187 ft 430 kts 212°
2026-04-16 12:36 50.46679 0.26525 33191 ft 431 kts 212°
2026-04-16 12:37 50.41272 0.22587 33197 ft 431 kts 212°
2026-04-16 12:37 50.35861 0.18657 33190 ft 430 kts 212°
2026-04-16 12:38 50.30432 0.14723 33192 ft 431 kts 212°
2026-04-16 12:38 50.24997 0.10794 33191 ft 429 kts 212°
2026-04-16 12:39 50.19603 0.06904 33189 ft 430 kts 212°
2026-04-16 12:39 50.14124 0.03067 33185 ft 436 kts 207°
2026-04-16 12:40 50.08088 0.01341 33200 ft 454 kts 189°
2026-04-16 12:40 50.01740 0.02605 33198 ft 474 kts 170°
2026-04-16 12:41 49.95451 0.05669 33199 ft 473 kts 172°
2026-04-16 12:41 49.89115 0.08216 33195 ft 471 kts 173°
2026-04-16 12:42 49.82757 0.10708 33195 ft 471 kts 173°
2026-04-16 12:42 49.76402 0.13190 33195 ft 472 kts 173°
2026-04-16 12:43 49.70050 0.15663 33196 ft 472 kts 172°
2026-04-16 12:43 49.63734 0.18186 33201 ft 472 kts 172°
2026-04-16 12:44 49.57381 0.20746 33207 ft 473 kts 172°
2026-04-16 12:44 49.51036 0.23295 33208 ft 472 kts 172°
2026-04-16 12:45 49.44712 0.25829 33210 ft 471 kts 172°
2026-04-16 12:45 49.38377 0.28359 33210 ft 473 kts 172°
2026-04-16 12:46 49.32029 0.30889 33205 ft 472 kts 171°
2026-04-16 12:46 49.25747 0.33518 33202 ft 472 kts 170°
2026-04-16 12:47 49.19433 0.36179 33199 ft 472 kts 170°
2026-04-16 12:47 49.13094 0.38843 33196 ft 471 kts 170°
2026-04-16 12:48 49.06782 0.41488 33198 ft 472 kts 170°
2026-04-16 12:48 49.00463 0.44130 33202 ft 473 kts 170°
2026-04-16 12:49 48.94139 0.46766 33201 ft 473 kts 170°
2026-04-16 12:49 48.87838 0.49386 33201 ft 472 kts 170°
2026-04-16 12:50 48.81472 0.52026 33200 ft 472 kts 170°
2026-04-16 12:50 48.75158 0.54560 33199 ft 471 kts 171°
2026-04-16 12:51 48.68838 0.57037 33206 ft 472 kts 171°
2026-04-16 12:51 48.62495 0.59519 33211 ft 472 kts 170°
2026-04-16 12:52 48.56136 0.62000 33212 ft 472 kts 170°
2026-04-16 12:52 48.49818 0.64501 33217 ft 473 kts 169°
2026-04-16 12:53 48.43494 0.67077 33217 ft 472 kts 170°
2026-04-16 12:53 48.37138 0.69657 33211 ft 472 kts 170°
2026-04-16 12:54 48.30817 0.72215 33212 ft 472 kts 170°
2026-04-16 12:54 48.24509 0.74758 33215 ft 472 kts 170°
2026-04-16 12:55 48.18170 0.77254 33211 ft 472 kts 170°
2026-04-16 12:55 48.11837 0.79743 33218 ft 472 kts 170°
2026-04-16 12:56 48.05501 0.82228 33213 ft 472 kts 170°
2026-04-16 12:56 47.99165 0.84706 33216 ft 471 kts 170°
2026-04-16 12:57 47.92814 0.87183 33218 ft 473 kts 170°
2026-04-16 12:57 47.86448 0.89660 33217 ft 472 kts 170°
2026-04-16 12:58 47.80093 0.92126 33220 ft 473 kts 170°
2026-04-16 12:58 47.73721 0.94593 33219 ft 473 kts 170°
2026-04-16 12:59 47.67417 0.97028 33224 ft 472 kts 169°
2026-04-16 13:00 47.57885 1.00697 33226 ft 472 kts 169°
2026-04-16 13:00 47.51534 1.03134 33225 ft 473 kts 169°
2026-04-16 13:01 47.45165 1.05565 33230 ft 473 kts 171°
2026-04-16 13:01 47.38712 1.06356 33240 ft 464 kts 185°
2026-04-16 13:02 47.32264 1.06194 33227 ft 463 kts 185°
2026-04-16 13:02 47.25828 1.06043 33222 ft 464 kts 185°
2026-04-16 13:03 47.19408 1.05892 33219 ft 464 kts 185°
2026-04-16 13:03 47.12924 1.05740 33218 ft 466 kts 185°
2026-04-16 13:04 47.06474 1.05590 33217 ft 465 kts 185°
2026-04-16 13:04 47.00041 1.05394 33218 ft 465 kts 186°
2026-04-16 13:05 46.93597 1.05115 33215 ft 464 kts 185°
2026-04-16 13:05 46.87106 1.04838 33220 ft 465 kts 185°
2026-04-16 13:06 46.80667 1.04563 33220 ft 465 kts 185°
2026-04-16 13:06 46.74198 1.04288 33216 ft 465 kts 186°
2026-04-16 13:07 46.67775 1.04016 33216 ft 465 kts 185°
2026-04-16 13:07 46.61293 1.03742 33219 ft 464 kts 185°
2026-04-16 13:08 46.54861 1.03470 33223 ft 464 kts 185°
2026-04-16 13:08 46.48425 1.03292 33218 ft 465 kts 184°
2026-04-16 13:09 46.41979 1.03225 33220 ft 465 kts 184°
2026-04-16 13:09 46.35492 1.03153 33216 ft 466 kts 184°
2026-04-16 13:10 46.29065 1.03081 33219 ft 466 kts 184°
2026-04-16 13:10 46.22560 1.03009 33217 ft 465 kts 184°
2026-04-16 13:11 46.16111 1.02938 33220 ft 465 kts 184°
2026-04-16 13:11 46.09656 1.02866 33225 ft 465 kts 184°
2026-04-16 13:12 46.03199 1.02795 33228 ft 466 kts 184°
2026-04-16 13:12 45.96731 1.02724 33227 ft 467 kts 184°
2026-04-16 13:13 45.90223 1.02653 33236 ft 466 kts 184°
2026-04-16 13:13 45.83848 1.01721 33238 ft 459 kts 198°
2026-04-16 13:14 45.78048 0.98252 33230 ft 451 kts 214°
2026-04-16 13:14 45.73218 0.92654 33232 ft 446 kts 224°
2026-04-16 13:15 45.68504 0.86899 33221 ft 447 kts 223°
2026-04-16 13:15 45.63732 0.81197 33218 ft 448 kts 223°
2026-04-16 13:16 45.58983 0.75546 33217 ft 447 kts 223°
2026-04-16 13:16 45.54186 0.69851 33213 ft 447 kts 223°
2026-04-16 13:17 45.49427 0.64213 33209 ft 446 kts 223°
2026-04-16 13:17 45.44646 0.58563 33206 ft 446 kts 223°
2026-04-16 13:18 45.39893 0.52958 33205 ft 447 kts 223°
2026-04-16 13:18 45.35109 0.47329 33204 ft 448 kts 223°
2026-04-16 13:19 45.30313 0.41701 33202 ft 447 kts 223°
2026-04-16 13:19 45.25554 0.36125 33200 ft 446 kts 223°
2026-04-16 13:20 45.20739 0.30500 33204 ft 446 kts 222°
2026-04-16 13:20 45.15946 0.24912 33203 ft 446 kts 222°
2026-04-16 13:21 45.11196 0.19386 33204 ft 446 kts 222°
2026-04-16 13:21 45.06380 0.13796 33203 ft 446 kts 222°
2026-04-16 13:22 45.01592 0.08251 33200 ft 447 kts 222°
2026-04-16 13:22 44.96800 0.02714 33198 ft 446 kts 222°
2026-04-16 13:22 44.94436 -0.00011 33188 ft 433 kts 222°
2026-04-16 13:23 44.92128 -0.02671 33192 ft 427 kts 222°
2026-04-16 13:23 44.87580 -0.07904 32989 ft 414 kts 222°
2026-04-16 13:23 44.85366 -0.10447 32797 ft 411 kts 222°
2026-04-16 13:24 44.83109 -0.13040 32344 ft 428 kts 222°
2026-04-16 13:24 44.80783 -0.15705 31862 ft 432 kts 222°
2026-04-16 13:24 44.78452 -0.18373 31381 ft 433 kts 222°
2026-04-16 13:24 44.76128 -0.21031 30904 ft 431 kts 222°
2026-04-16 13:25 44.73816 -0.23672 30567 ft 425 kts 222°
2026-04-16 13:25 44.69244 -0.28890 29931 ft 438 kts 222°
2026-04-16 13:25 44.66866 -0.31598 28470 ft 446 kts 221°
2026-04-16 13:26 44.64438 -0.34340 27394 ft 442 kts 219°
2026-04-16 13:26 44.61948 -0.36723 26903 ft 427 kts 217°
2026-04-16 13:26 44.59547 -0.39007 26428 ft 412 kts 217°
2026-04-16 13:26 44.57238 -0.41221 25982 ft 399 kts 217°
2026-04-16 13:27 44.54971 -0.43400 25548 ft 394 kts 217°
2026-04-16 13:27 44.52707 -0.45576 25118 ft 396 kts 217°
2026-04-16 13:27 44.50449 -0.47745 24681 ft 396 kts 217°
2026-04-16 13:27 44.48189 -0.49913 24242 ft 394 kts 217°
2026-04-16 13:28 44.45938 -0.52070 23808 ft 392 kts 217°
2026-04-16 13:28 44.43703 -0.54210 23377 ft 389 kts 217°
2026-04-16 13:28 44.41478 -0.56339 22946 ft 387 kts 217°
2026-04-16 13:28 44.39243 -0.58475 22514 ft 385 kts 217°
2026-04-16 13:29 44.37075 -0.60545 22095 ft 382 kts 217°
2026-04-16 13:29 44.34871 -0.62647 21669 ft 379 kts 217°
2026-04-16 13:29 44.32699 -0.64717 21249 ft 377 kts 217°
2026-04-16 13:29 44.30518 -0.66795 20834 ft 375 kts 217°
2026-04-16 13:30 44.28377 -0.68837 20424 ft 372 kts 218°
2026-04-16 13:30 44.26466 -0.71216 20022 ft 367 kts 227°
2026-04-16 13:30 44.24674 -0.73691 19611 ft 365 kts 227°
2026-04-16 13:30 44.22863 -0.76191 19197 ft 362 kts 227°
2026-04-16 13:31 44.21094 -0.78630 18805 ft 360 kts 227°
2026-04-16 13:31 44.19306 -0.81094 18404 ft 358 kts 227°
2026-04-16 13:31 44.17551 -0.83510 18008 ft 356 kts 227°
2026-04-16 13:31 44.15797 -0.85923 17621 ft 354 kts 227°
2026-04-16 13:32 44.14052 -0.88321 17229 ft 352 kts 227°
2026-04-16 13:32 44.12319 -0.90700 16840 ft 350 kts 227°
2026-04-16 13:32 44.10593 -0.93068 16453 ft 347 kts 227°
2026-04-16 13:32 44.08880 -0.95417 16059 ft 345 kts 227°
2026-04-16 13:33 44.07181 -0.97744 15690 ft 344 kts 227°
2026-04-16 13:33 44.05466 -1.00090 15311 ft 342 kts 227°
2026-04-16 13:33 44.03801 -1.02368 14929 ft 340 kts 227°
2026-04-16 13:33 44.02106 -1.04683 14553 ft 338 kts 227°
2026-04-16 13:34 44.00443 -1.06953 14184 ft 336 kts 226°
2026-04-16 13:34 43.98782 -1.09218 13828 ft 334 kts 226°
2026-04-16 13:34 43.97133 -1.11465 13446 ft 332 kts 226°
2026-04-16 13:34 43.95494 -1.13698 13071 ft 329 kts 226°
2026-04-16 13:35 43.93869 -1.15907 12718 ft 328 kts 226°
2026-04-16 13:35 43.92244 -1.18117 12363 ft 327 kts 226°
2026-04-16 13:35 43.90629 -1.20311 12004 ft 325 kts 226°
2026-04-16 13:35 43.89033 -1.22477 11641 ft 319 kts 226°
2026-04-16 13:36 43.87442 -1.24633 11279 ft 311 kts 226°
2026-04-16 13:36 43.85921 -1.26696 10904 ft 303 kts 226°
2026-04-16 13:36 43.84440 -1.28700 10606 ft 295 kts 226°
2026-04-16 13:36 43.82993 -1.30659 10295 ft 289 kts 226°
2026-04-16 13:37 43.81569 -1.32584 9964 ft 282 kts 226°
2026-04-16 13:37 43.80192 -1.34445 9673 ft 279 kts 226°
2026-04-16 13:37 43.78812 -1.36309 9370 ft 277 kts 225°
2026-04-16 13:37 43.77428 -1.38176 9043 ft 277 kts 225°
2026-04-16 13:38 43.76048 -1.40037 8742 ft 277 kts 225°
2026-04-16 13:38 43.74662 -1.41905 8441 ft 277 kts 225°
2026-04-16 13:38 43.73265 -1.43786 8127 ft 276 kts 225°
2026-04-16 13:38 43.71875 -1.45657 7809 ft 275 kts 225°
2026-04-16 13:39 43.70496 -1.47511 7498 ft 273 kts 225°
2026-04-16 13:39 43.69116 -1.49365 7203 ft 273 kts 224°
2026-04-16 13:39 43.67745 -1.51207 6900 ft 271 kts 224°
2026-04-16 13:39 43.66376 -1.53044 6589 ft 270 kts 224°
2026-04-16 13:40 43.65019 -1.54864 6289 ft 270 kts 224°
2026-04-16 13:40 43.63649 -1.56700 6009 ft 270 kts 224°
2026-04-16 13:40 43.62165 -1.58290 5696 ft 269 kts 203°
2026-04-16 13:40 43.60446 -1.59130 5436 ft 260 kts 198°
2026-04-16 13:41 43.58706 -1.59915 5144 ft 253 kts 198°
2026-04-16 13:41 43.57044 -1.60658 4862 ft 247 kts 197°
2026-04-16 13:41 43.55409 -1.61386 4584 ft 241 kts 197°
2026-04-16 13:41 43.53805 -1.62096 4315 ft 235 kts 198°
2026-04-16 13:42 43.52243 -1.62852 4184 ft 222 kts 212°
2026-04-16 13:42 43.51334 -1.64395 4470 ft 206 kts 258°
2026-04-16 13:42 43.51236 -1.66374 4797 ft 206 kts 270°
2026-04-16 13:42 43.51231 -1.68391 5080 ft 209 kts 269°
2026-04-16 13:43 43.51225 -1.70477 5417 ft 231 kts 269°
2026-04-16 13:43 43.51218 -1.72806 5707 ft 250 kts 269°
2026-04-16 13:43 43.51210 -1.75292 5741 ft 253 kts 269°
2026-04-16 13:43 43.51201 -1.77744 5749 ft 252 kts 269°
2026-04-16 13:44 43.51193 -1.80189 5756 ft 251 kts 269°
2026-04-16 13:44 43.51105 -1.82616 5758 ft 250 kts 259°
2026-04-16 13:44 43.50655 -1.84959 5747 ft 249 kts 249°
2026-04-16 13:44 43.49988 -1.87195 5750 ft 249 kts 244°
2026-04-16 13:45 43.49215 -1.89353 5759 ft 248 kts 242°
2026-04-16 13:45 43.48386 -1.91477 5752 ft 247 kts 240°
2026-04-16 13:45 43.47527 -1.93584 5748 ft 247 kts 239°
2026-04-16 13:45 43.46652 -1.95683 5739 ft 247 kts 239°
2026-04-16 13:46 43.45917 -1.97843 5732 ft 247 kts 245°
2026-04-16 13:46 43.44793 -1.99601 5709 ft 247 kts 210°
2026-04-16 13:46 43.43223 -2.00618 5476 ft 250 kts 203°
2026-04-16 13:46 43.41627 -2.01551 5196 ft 249 kts 203°
2026-04-16 13:47 43.39980 -2.02280 4901 ft 249 kts 182°
2026-04-16 13:47 43.38291 -2.01850 4689 ft 249 kts 162°
2026-04-16 13:47 43.36637 -2.01135 4444 ft 248 kts 162°
2026-04-16 13:47 43.35035 -2.00453 4207 ft 229 kts 162°
2026-04-16 13:48 43.33576 -1.99855 4019 ft 213 kts 162°
2026-04-16 13:48 43.32178 -1.99278 3734 ft 207 kts 162°
2026-04-16 13:48 43.30811 -1.98712 3434 ft 202 kts 162°
2026-04-16 13:48 43.29496 -1.98148 3193 ft 192 kts 157°
2026-04-16 13:49 43.28455 -1.97266 3271 ft 166 kts 136°
2026-04-16 13:49 43.27803 -1.96024 3162 ft 161 kts 112°
2026-04-16 13:49 43.27539 -1.94523 2862 ft 162 kts 91°
2026-04-16 13:49 43.27714 -1.93044 2641 ft 154 kts 64°
2026-04-16 13:50 43.28171 -1.91743 2547 ft 151 kts 61°
2026-04-16 13:50 43.28653 -1.90444 2436 ft 154 kts 60°
2026-04-16 13:50 43.29133 -1.89132 2357 ft 153 kts 62°
2026-04-16 13:50 43.29623 -1.87817 2179 ft 155 kts 60°
2026-04-16 13:51 43.30125 -1.86529 1934 ft 150 kts 59°
2026-04-16 13:51 43.30658 -1.85370 1669 ft 137 kts 54°
2026-04-16 13:51 43.31222 -1.84323 1338 ft 138 kts 47°
2026-04-16 13:51 43.31893 -1.83365 1151 ft 138 kts 42°
2026-04-16 13:52 43.32595 -1.82459 923 ft 144 kts 39°
2026-04-16 13:52 43.33380 -1.81585 644 ft 144 kts 37°
2026-04-16 13:52 43.34122 -1.80753 423 ft 132 kts 39°
2026-04-16 13:52 43.34812 -1.79987 162 ft 127 kts 37°
2026-04-16 13:53 43.35489 -1.79239 15 ft 111 kts 38°
2026-04-16 13:53 43.35849 -1.78845 14 ft 48 kts 38°
2026-04-16 13:53 43.35969 -1.78687 14 ft 7 kts 32°
2026-04-16 13:53 43.35968 -1.78710 14 ft 6 kts 217°
2026-04-16 13:54 43.35918 -1.78763 14 ft 12 kts 219°
2026-04-16 13:54 43.35826 -1.78866 14 ft 21 kts 219°
2026-04-16 13:54 43.35698 -1.79010 14 ft 24 kts 218°
2026-04-16 13:54 43.35619 -1.79123 15 ft 9 kts 282°
2026-04-16 13:55 43.35642 -1.79169 15 ft 5 kts 294°
2026-04-16 13:55 43.35649 -1.79213 15 ft 4 kts 246°
2026-04-16 13:55 43.35638 -1.79229 15 ft 0 kts 221°
2026-04-16 13:55 43.35636 -1.79231 15 ft 0 kts 220°